Regional Weather Roundup
Issued by NWS Upton, NY

Home | Current Version | Previous Version | Text Only | Print | Product List | Glossary On
Versions: 1 2 3 4 5 6 7 8 9 10 11 12 13 14 15 16 17 18 19 20 21 22 23 24 25 26 27 28 29 30 31 32 33 34 35 36 37 38 39 40 41 42 43 44 45 46 47 48 49 50
789
ASUS41 KOKX 251504
RWROKX

REGIONAL WEATHER ROUNDUP
NATIONAL WEATHER SERVICE NEW YORK NY
1100 AM EDT WED MAY 25 2016

NOTE: "FAIR" INDICATES FEW OR NO CLOUDS BELOW 12,000 FEET WITH NO
SIGNIFICANT WEATHER AND/OR OBSTRUCTIONS TO VISIBILITY.

NYZ071-072-176-178-NJZ106-104-251600-
NEW YORK CITY METRO AREA


CITY           SKY/WX    TMP DP  RH WIND       PRES   REMARKS
CENTRAL PARK   SUNNY     78  46  32 W7        30.10S
LAGUARDIA APRT MOSUNNY   79  51  37 NW10      30.06F
KENNEDY INTL   MOSUNNY   79  50  36 SW9       30.07F
NEWARK/LIBERTY MOSUNNY   83  47  28 W6        30.06F
BRNX BOT. GARD   N/A     77  46  33 W3        30.09R
TETERBORO      SUNNY     81  46  29 NW7       30.05F
$$

NYZ177-179-078>081-251600-
LONG ISLAND NEW YORK

CITY           SKY/WX    TMP DP  RH WIND       PRES   REMARKS
FARMINGDALE    SUNNY     80  49  33 W6        30.06S
ISLIP          MOSUNNY   80  51  36 NW5       30.05S
SHIRLEY        SUNNY     79  52  38 W8        30.05F
RIVERHEAD        N/A     75  55  50 NE2       30.05S
WESTHAMPTON    SUNNY     77  48  35 W8        30.06S
EAST HAMPTON   FAIR      74  50  43 NW5       30.04S
MONTAUK POINT    N/A     67  56  67 W8        30.05F
$$

NYZ052-065-067-251600-
HUDSON VALLEY

CITY           SKY/WX    TMP DP  RH WIND       PRES   REMARKS
WHITE PLAINS   SUNNY     77  50  38 W10       30.06S
NEWBURGH       SUNNY     73  54  49 SW9       30.08S
MONTGOMERY     SUNNY     80  52  37 W9        30.05F
POUGHKEEPSIE   SUNNY     76  52  43 MISG      30.05F
ALBANY         MOSUNNY   75  52  44 S7        30.03F
$$

NJZ001-105-106-008-010-013-015-019>022-104-251600-
NEW JERSEY

CITY           SKY/WX    TMP DP  RH WIND       PRES   REMARKS
NEWARK/LIBERTY MOSUNNY   83  47  28 W6        30.06F
TETERBORO      SUNNY     81  46  29 NW7       30.05F
CALDWELL       SUNNY     81  44  27 VRB6      30.07F
MORRISTOWN     SUNNY     81  45  28 NW10      30.08S
SOMERVILLE     SUNNY     78  53  41 CALM      30.07F
SUSSEX         SUNNY     77  51  40 VRB3      30.08F
ANDOVER          N/A     78  47  33 VRB5      30.09F
TRENTON        SUNNY     78  50  37 VRB3      30.09F
MILLVILLE      SUNNY     82  46  28 NW9       30.11F
ATLANTIC CITY  SUNNY     82  45  27 W8        30.10F
WRIGHTSTOWN    NOT AVBL
TOMS RIVER     SUNNY     82  48  30 W9        30.10S
BELMAR         SUNNY     80  52  37 W10       30.10S
$$

PAZ047>061-062-071-251600-
EASTERN PENNSYLVANIA

CITY           SKY/WX    TMP DP  RH WIND       PRES   REMARKS
PHILADELPHIA   MOSUNNY   80  43  26 VRB5      30.11F
ALLENTOWN      SUNNY     78  48  34 VRB7      30.10F
SCRANTON       SUNNY     74  47  38 VRB7      30.11F
$$

CTZ002-004>006-009-010-012-RIZ004-006-007-MAZ004-011-015-251600-
SOUTHERN NEW ENGLAND
 IN CT

CITY           SKY/WX    TMP DP  RH WIND       PRES   REMARKS
BRADLEY INTL   MOSUNNY   80  51  36 NW7       30.00F
HARTFORD       SUNNY     79  54  41 VRB3      30.01F
DANBURY        SUNNY     75  55  49 SW7       30.07S
WTRBRY/OXFORD  MOSUNNY   72  54  53 NW7       30.07S
BRIDGEPORT     SUNNY     70  54  56 SW12      30.05R
MERIDEN        SUNNY     78  52  40 W7        30.03S
NEW HAVEN      SUNNY     68  58  70 S7        30.04S
CHESTER          N/A     77  50  38 VRB6G16   30.04S
GROTON         SUNNY     61  58  90 SW10      30.03S
WILLIMANTIC    SUNNY     79  48  33 VRB7      30.02S

 IN RI

CITY           SKY/WX    TMP DP  RH WIND       PRES   REMARKS
PROVIDENCE     SUNNY     71  58  63 SE8       30.01F
BLOCK ISLAND   SUNNY     64  57  78 W13       30.04S
WESTERLY       SUNNY     66  54  65 SW8       30.04R

 IN MA

CITY           SKY/WX    TMP DP  RH WIND       PRES   REMARKS
BOSTON         SUNNY     67  58  72 SE3       30.00S
WORCESTER      SUNNY     73  49  42 W9G20     30.02S
WESTFIELD      SUNNY     79  46  31 W10       30.01S
PROVINCETOWN   SUNNY     62  56  80 S6        30.03S
NANTUCKET      SUNNY     61  55  81 S8        30.05R
$$

ANZ330-335-338-340-345-350-353-355-251600-
COASTAL MARINE OBSERVATIONS


STATION/POSITION TIME  SKY/WX   TEMP    WIND        PRES    VSBY  WAVE
                                AIR SEA DIR/SP/G                  HT/PER
                 (UTC)          (F)     (DEG/KT/KT) (MB)    (MI)  (FT/S)
NY HARB ENTRANCE 1350            61 59  250/  4/  6 1017.9          2/ 7
20S FIRE ISLAND  1350            59 56  240/  8/  8 1018.0          3/ 8
GREAT SOUTH BAY  1400            65 65  230/  8/ 10   N/A
23 SSW MONTAUK P 1450            57 55  250/ 12/ 14 1017.1          3/ 8
15 E BARNEGAT LI 1422               57                N/A           3/10
HUDSON CANYON    1350            56 54              1019.0          3/ 8
KINGS POINT      1406            70 58              1017.8
EXECUTION ROCKS  NOT AVBL
CENTRAL LI SOUND 1445            59     260/  8/ 10   N/A           0
EASTERN LI SOUND 1400            55 52  260/  8/ 10   N/A
ROBBINS REEF     1400            74     250/  6/  8 1017.5
$$


>>>>>>>>>>>>>>>>>>>>>>>>>>>> KEY <<<<<<<<<<<<<<<<<<<<<<<<<<<
>                                                          <
>     SKY/WX - SKY CONDITION/PRESENT WEATHER               <
>     TMP    - TEMPERATURE IN FAHRENHEIT                   <
>     DP     - DEWPOINT IN FAHRENHEIT                      <
>     RH     - RELATIVE HUMIDITY IN PERCENT                <
>     WIND   - DIRECTION AND SPEED IN MPH                  <
>     PRES   - MEAN SEA LEVEL PRESSURE IN INCHES OF HG     <
>     WCI    - WIND CHILL INDEX                            <
>     VSB    - VISIBILITY IN MILES                         <
>     HX     - HEAT INDEX                                  <
>     TC     - TEMPERATURE IN CELSIUS                      <
>     VRB    - VARIABLE WIND DIRECTION                     <
>                                                          <
>>>>>>>>>>>>>>>>>>>>>>>>>>>> KEY <<<<<<<<<<<<<<<<<<<<<<<<<<<






USA.gov is the U.S. government's official web portal to all federal, state and local government web resources and services.